Regional Weather Roundup
Issued by NWS

Home | Current Version | Previous Version | Graphics & Text | Print | Product List | Glossary On
Versions: 1 2 3 4 5 6 7 8 9 10 11 12 13 14 15 16 17 18 19 20 21 22 23 24 25 26 27 28 29 30 31 32 33 34 35 36 37 38 39 40 41 42 43 44 45 46 47 48 49 50
373
ASUS44 KJAN 020903
RWRMS

MISSISSIPPI HOURLY WEATHER ROUNDUP
NATIONAL WEATHER SERVICE JACKSON MS
300 AM CST MON MAR 02 2015

NOTE: "FAIR: INDICATES FEW OR NO CLOUDS BELOW 12,000 FEET WITH NO
SIGNIFICANT WEATHER AND/OR OBSTRUCTIONS TO VISIBILITY.

MSZ001>002-007>008-010>013-018>021-025>028-034>036-021000-
NORTHWEST MISSISSIPPI

CITY           SKY/WX    TMP DP  RH WIND       PRES   REMARKS
CLARKSDALE     CLOUDY    37  37 100 N15       30.39F WCI  28
CLEVELAND      CLOUDY    39  39 100 N17       30.35F WCI  30
GREENWOOD        N/A    N/A N/A N/A MISG      30.32F
GREENVILLE     LGT RAIN  40  38  93 N13       30.34F FOG     WCI  32
OLIVE BRANCH   CLOUDY    34  34 100 N9        30.41R WCI  26
OXFORD         CLOUDY    37  37 100 N9        30.37F FOG     WCI  31
TUNICA         CLOUDY    36  36 100 N17       30.42R FOG     WCI  25
$$

MSZ003>006-009-014>017-022>024-029>033-037>039-021000-
NORTHEAST MISSISSIPPI

CITY           SKY/WX    TMP DP  RH WIND       PRES   REMARKS
COLUMBUS AFB   LGT RAIN  52  52 100 VRB1      30.29F VSB 1
CORINTH        CLOUDY    41  37  87 N9        30.37R
GOLDN TRIANGLE CLOUDY    52  50  93 N3        30.29F VSB 1/2
STARKVILLE     RAIN      52  52 100 CALM      30.29F VSB 3/4
TUPELO         CLOUDY    45  43  93 NE16      30.33F
$$

MSZ040-058-021000-
CENTRAL MISSISSIPPI

CITY           SKY/WX    TMP DP  RH WIND       PRES   REMARKS
JACKSON INTL   FOG       57  56  96 CALM      30.27F VSB 1/4
JACKSON HAWKNS FOG       53  52  96 NW6       30.28S VSB 1/4
MERIDIAN KEY   FOG       54  54 100 CALM      30.28S VSB 1/4
MERIDIAN NAS   FOG       54  53  97 E3        30.28F VSB 1/4
VICKSBURG      FOG       47  46  97 N8        30.30F VSB 3/4
$$

MSZ059>079-021000-
SOUTH MISSISSIPPI

CITY           SKY/WX    TMP DP  RH WIND       PRES   REMARKS
BROOKHAVEN     CLOUDY    57  57 100 CALM      30.27S
HATTIESBURG    LGT RAIN  59  58  96 SE3       30.27F
MCCOMB         CLOUDY    60  59  96 SE7       30.25F
NATCHEZ        CLOUDY    48  46  93 N5        30.28F VSB 1/4
PINE BELT      CLOUDY    57  55  94 CALM      30.27F
$$

MSZ080>082-021000-
COASTAL MISSISSIPPI

CITY           SKY/WX    TMP DP  RH WIND       PRES   REMARKS
BILOXI         CLOUDY    58  58 100 SE12      30.25F
PASCAGOULA     CLOUDY    58  57  97 E8        30.26F
GULFPORT       CLOUDY    57  56  96 E12       30.26S
$$



USA.gov is the U.S. government's official web portal to all federal, state and local government web resources and services.